ONEWEB-0110 (47260 NORAD) Tracking and Keplerian Element Data
This shows tracking and keplerian element data for the satellite.
Feedback or suggestion? Click here.
Element | Value |
Catalog | 47260 |
Name | ONEWEB-0110 |
Epoch Orbit | 1080 |
Epoch Day | 60.16668981 |
Epoch Year | 2021 |
RAAN | 16.3491 |
Inclination | 87.6267 |
Eccentricity | 0.0010294 |
Argument of Perigee | 35.9046 |
Mean Anonmoly | 358.4062 |
Mean Motion | 14.00270259 |
Decay Rate | -0.01024821 |
L1 | 1 47260U 20100C 21060.16668981 -.01024821 00000-0 -73689+0 0 9998 |
L2 | 2 47260 87.6267 16.3491 0010294 35.9046 358.4062 14.00270259 10801 |
Live tracking and technical data element details for ONEWEB-0110 (NORAD 47260). ONEWEB-0110 can be tracked NOW for your location showing map with azimuth and elevation plus other details from your city location.
Track the satellite on the map from your city or location and see movement details for azimuth, elevation, latitude, longitude, range, height, and movement on the map or in text.
IsCatalogInMostPopularTable: catalog: 47260, numindb: 20
Update: records affected: 1
GetName: 47260 ONEWEB-0110
Hit Count: updated at: Mon, 01 Mar 2021 21:56:37 GMT